Overview Statistics Trail Chart Weather Telemetry Raw packets
 

This is the latest recevied weather packets stored in our database for station/object HB9FHL-13. If no packets are shown the sender has not sent any weather packets the latest 10 day(s).

<< 23 24 25 26 27 28 29 >>
Time Temp. Humidity Pressure Rain* Wind** Luminosity Snow
1788532868 27.78° C - 1015 hPa 0 mm - - -
1788532568 27.78° C - 1016.2 hPa 0 mm - - -
1788532319 26.67° C - 1020.3 hPa 0 mm - - -
1788532267 26.67° C - 1020.3 hPa 0 mm - - -
1788531967 27.22° C - 1019.9 hPa 0 mm - - -
1788531666 27.22° C - 1020.6 hPa 0 mm - - -
1788531366 27.22° C - 1016.9 hPa 0 mm - - -
1788531070 26.67° C - 1010 hPa 0 mm - - -
1788531065 26.67° C - 1010 hPa 0 mm - - -
1788530769 26.67° C - 1017.7 hPa 0 mm - - -
1788530765 26.67° C - 1017.7 hPa 0 mm - - -
1788530468 26.67° C - 1021.4 hPa 0 mm - - -
1788530464 26.67° C - 1021.4 hPa 0 mm - - -
1788530163 27.22° C - 1020.1 hPa 0 mm - - -
1788529863 26.67° C - 1018.9 hPa 0 mm - - -
1788529566 26.67° C - 1017.3 hPa 0 mm - - -
1788529562 26.67° C - 1017.3 hPa 0 mm - - -
1788529266 27.22° C - 1018.8 hPa 0 mm - - -
1788529262 27.22° C - 1018.8 hPa 0 mm - - -
1788528966 26.11° C - 1018.7 hPa 0 mm - - -
1788528961 26.11° C - 1018.7 hPa 0 mm - - -
1788528666 26.67° C - 1019.7 hPa 0 mm - - -
1788528661 26.67° C - 1019.7 hPa 0 mm - - -
1788528360 27.22° C - 1025.1 hPa 0 mm - - -
1788528065 25.56° C - 1019.9 hPa 0 mm - - -

* Rain since midnight (hover to see other rain measurements)
** Current wind speed in m/s (hover to see current wind gust speed)